sat.trackr.live / text

‹ back to catalog

STARLINK-31451

NORAD 59366 · 2024-060U

PAYLOAD ACTIVE UNKNOWN

§ Identity

Operator
Country
US
Launch date
2024-03-31
Launch site
AFETR
Launch vehicle
Mass (kg)
RCS (m²)

Purposes: comms

External: N2YO · Heavens-Above · Gunter

§ Orbital elements

Epoch: 2026-09-20T23:29:25.747872Z

Period
94.27 min
Inclination
43.0031°
Eccentricity
0.0000974
Mean motion
15.27576029 rev/d
Perigee alt
482.4 km
Apogee alt
483.7 km
Semi-major
6,861.2 km
B*
2.4934e-5
RAAN
236.6345°
Arg perigee
274.2257°
Mean anomaly
85.8484°
Rev number
13,993

§ Raw data

STARLINK-314511 59366U 24060U   26263.97877023  .00000424  00000+0  24934-4 0  99982 59366  43.0031 236.6345 0000974 274.2257  85.8484 15.27576029139936

JSON: /api/v1/satellites/59366 · /tle

For live sub-satellite position, see the globe view (requires WebGL).

§ Visibility from observer

Set your observer location to see the next 7 days of passes ≥ 10°. The values pass through the URL so the page stays shareable.

No JS? Fill the form by hand. The geolocation button needs JavaScript.